Probability
93 89 80 74 75 79 83 84 86 87 85 77 71 71 69 55 39 36 55 74 75 69 63 53 41 33 24 16 11 5 2 3 3 2 1 0 0 0 0 0 0 0 0
88 87 82 76 72 72 76 79 81 82 82 78 74 75 75 66 54 48 56 70 71 64 57 50 41 33 23 16 13 9 5 4 4 2 0 0 0 0 0 0 0 0 0
80 80 80 76 69 66 67 68 67 68 70 70 70 72 74 71 65 57 56 61 61 53 48 45 40 34 23 16 14 13 9 7 3 1 0 0 0 0 0 0 0 0 0
64 66 68 68 64 59 57 53 50 50 50 50 54 57 60 62 59 53 50 50 47 41 37 36 35 32 23 14 12 14 12 8 3 0 0 1 1 0 0 0 0 0 0
45 48 53 55 54 49 45 40 37 37 34 31 31 34 40 45 43 38 36 35 33 30 27 25 26 25 17 10 10 13 14 10 4 1 0 1 1 0 0 0 0 0 0
34 36 40 44 42 37 32 30 28 25 22 18 15 16 22 27 27 23 20 19 21 21 19 20 22 20 12 7 8 14 18 14 7 3 1 1 1 0 0 0 0 0 0
26 27 29 32 31 27 23 20 18 14 11 12 11 10 12 14 16 15 12 10 12 14 15 20 24 21 13 7 6 11 17 15 7 4 3 2 0 0 0 0 0 0 0
16 17 18 20 20 19 17 13 9 7 6 7 8 9 8 8 10 11 9 7 8 11 14 20 26 24 16 10 5 6 10 9 5 4 4 3 1 1 1 1 0 0 0
7 8 10 10 11 13 13 10 7 5 4 4 5 6 6 6 8 8 7 5 5 7 11 17 25 25 20 14 7 3 3 3 2 3 4 3 1 1 2 1 0 0 0
2 3 5 6 6 7 9 7 6 6 5 3 4 5 7 8 8 7 5 4 3 5 8 12 18 24 23 17 10 3 0 0 0 1 2 2 1 1 2 2 1 0 0
0 1 2 3 3 4 5 5 5 6 6 4 4 4 6 8 7 5 2 1 2 4 7 9 13 21 24 18 11 4 1 0 0 0 0 1 1 1 2 2 1 1 1
0 0 1 1 1 2 2 2 3 5 6 5 4 4 5 6 5 2 1 0 1 5 10 13 15 19 21 15 9 4 1 0 0 0 0 0 0 0 1 1 1 2 3
0 0 1 1 1 1 1 1 1 2 3 4 4 5 6 5 3 3 2 1 2 7 13 17 19 21 19 14 7 3 1 0 0 0 0 0 0 0 0 0 0 2 4
0 0 1 2 2 1 0 0 0 1 1 3 4 5 7 6 5 6 7 4 3 4 10 19 25 27 25 16 6 1 0 0 0 0 0 0 0 0 0 0 0 1 1
0 0 1 1 1 1 1 1 1 1 2 3 5 6 7 7 7 10 12 9 5 3 7 21 33 37 32 18 6 2 1 0 0 0 0 0 0 0 0 0 0 0 0
0 0 0 0 0 0 1 2 1 1 2 3 5 6 7 8 9 11 14 13 10 7 10 25 42 46 36 19 6 2 2 0 0 0 0 0 0 0 0 0 0 0 0
0 0 0 0 0 0 1 2 1 1 1 2 3 3 3 6 9 11 12 13 14 13 15 26 41 47 39 21 7 3 2 0 0 0 0 0 0 0 0 0 0 0 0
0 0 0 0 0 0 0 1 1 0 0 1 1 1 1 3 6 9 10 11 14 17 18 23 33 40 36 23 10 4 2 1 0 0 0 0 0 0 0 0 0 0 0
0 0 0 0 0 0 0 0 0 0 0 0 0 0 0 1 3 6 8 8 10 15 20 24 28 33 30 21 11 5 3 1 0 0 0 0 0 0 0 0 0 0 0
0 0 0 0 0 0 0 1 0 0 1 1 0 0 0 0 1 3 5 6 7 11 17 22 27 30 26 17 9 6 3 1 0 0 0 0 0 0 0 0 0 0 0
0 0 0 0 0 0 0 0 0 0 1 1 1 1 1 0 0 1 2 3 5 7 11 16 23 28 24 14 9 7 4 1 0 0 0 0 0 0 0 0 0 0 0
0 0 0 0 0 0 0 0 0 1 2 1 0 0 0 0 0 0 1 1 2 4 6 10 17 22 19 13 9 8 4 1 0 0 0 0 0 0 0 0 0 0 0
0 0 0 0 0 0 0 0 0 2 2 1 0 0 0 0 0 0 0 0 0 1 3 6 10 13 13 10 7 6 5 2 0 0 0 0 0 0 0 0 0 0 0
0 0 0 0 0 0 0 0 0 1 1 0 0 0 0 0 0 0 0 0 0 0 1 2 5 6 7 7 5 4 4 3 1 0 0 0 0 0 0 0 0 0 0
0 0 0 0 0 0 0 0 0 0 0 0 0 0 0 0 0 0 0 0 0 0 0 0 1 1 2 3 2 2 2 2 1 0 0 0 0 0 0 0 0 0 0
0 0 0 0 0 0 0 0 0 0 0 0 0 0 0 0 0 0 0 0 0 0 0 0 0 0 0 0 1 1 1 1 0 0 0 0 0 0 0 0 0 0 0
Wind_Speed
4 4 4 4 5 4 6 8 8 10 10 10 9 9 10 11 9 6 5 15 17 17 17 17 17 17 16 16 17 17 17 16 15 14 14 14 13 13 13 12 11 11 10
3 4 5 5 6 6 6 5 7 7 7 7 8 8 9 8 8 6 5 10 16 17 16 17 18 18 18 18 18 17 17 17 16 15 14 15 14 14 14 14 13 13 12
4 4 4 5 6 6 7 6 7 6 6 7 8 8 7 7 6 7 6 5 8 15 17 18 18 18 19 19 19 19 18 18 18 17 16 15 15 15 15 15 15 14 13
5 5 4 5 5 5 5 6 7 6 6 6 6 6 6 6 8 8 7 6 6 8 14 20 20 19 20 20 21 20 19 19 19 19 18 18 17 17 16 16 16 15 14
5 5 4 4 5 4 5 7 6 5 6 7 7 6 6 6 7 9 8 9 9 9 8 14 21 21 21 22 21 21 21 20 20 21 21 20 19 18 17 17 17 16 16
5 5 5 4 4 3 4 4 5 5 6 7 9 9 7 8 7 8 9 9 9 11 11 12 12 15 21 20 20 20 21 22 22 22 22 21 20 19 18 18 18 17 17
4 4 5 4 4 3 4 4 4 5 5 5 6 6 6 8 9 8 8 7 9 11 11 10 9 8 10 19 19 20 22 22 22 22 22 21 20 20 19 19 18 18 17
3 4 4 4 4 3 4 4 4 3 4 4 4 4 4 5 7 10 8 8 9 8 9 11 10 10 8 8 13 20 20 21 22 22 21 20 20 19 19 19 18 18 18
3 3 3 3 4 3 4 4 3 4 3 4 4 4 3 4 3 6 10 8 8 6 7 7 10 11 10 7 9 17 21 20 21 22 21 20 18 18 18 19 19 19 18
4 3 3 3 3 3 4 4 3 2 3 4 4 4 4 1 1 1 4 6 7 6 6 6 8 9 9 7 8 13 19 19 19 20 19 19 19 18 18 18 19 19 19
5 4 3 2 2 2 3 4 4 3 2 4 4 4 4 4 4 2 3 3 4 4 4 4 2 4 7 6 6 10 17 18 17 17 17 17 18 18 19 19 20 20 20
4 4 3 2 2 2 2 3 3 4 3 5 5 4 3 3 3 3 3 4 5 4 5 4 3 3 3 4 5 9 12 14 14 14 14 15 16 17 18 19 20 20 20
5 5 5 2 3 3 3 3 3 3 4 4 4 4 4 5 4 4 3 4 4 4 5 4 4 4 4 4 6 9 8 9 10 11 12 12 13 14 16 17 18 18 18
7 7 6 5 4 4 5 4 3 4 3 3 4 4 4 5 5 5 3 2 2 3 4 5 4 5 4 5 7 7 6 7 8 9 10 10 11 12 13 14 14 15 15
8 8 8 7 7 6 5 5 4 5 4 4 4 4 4 4 5 6 4 3 2 3 4 4 3 5 5 6 7 5 5 6 6 7 8 9 9 9 10 10 11 11 11
8 8 8 8 8 7 7 6 6 6 6 5 4 4 4 3 4 5 5 4 3 2 3 3 4 7 7 7 7 6 8 9 7 6 7 8 8 8 8 8 9 9 9
8 8 8 9 9 8 8 7 8 7 7 6 6 5 5 5 4 4 4 4 4 3 2 2 4 7 8 9 7 7 7 6 6 8 8 9 9 9 9 9 9 9 8
8 9 9 9 10 10 8 8 9 9 8 8 7 7 6 5 6 4 4 5 4 4 2 4 4 6 8 9 8 7 7 7 6 10 11 11 11 11 11 11 11 10 10
9 9 9 10 10 10 10 9 9 9 9 8 8 8 8 7 6 5 5 4 4 4 2 4 5 5 6 8 8 8 9 7 7 9 11 12 13 13 13 13 13 12 12
9 10 10 10 10 10 11 10 10 10 9 9 8 8 8 8 7 7 6 6 5 4 3 3 5 6 7 8 8 8 7 6 6 7 8 9 13 14 14 14 14 14 14
12 10 10 10 10 10 11 11 10 11 9 9 9 9 9 10 11 8 6 6 6 5 4 4 5 6 7 9 8 6 7 6 6 6 7 6 7 7 8 11 13 15 14
11 10 11 12 12 12 12 11 9 9 8 8 9 9 9 10 12 12 11 9 8 7 7 6 5 7 9 9 8 9 9 8 5 5 6 6 6 7 6 6 10 14 14
11 11 11 12 12 12 14 14 13 9 9 8 8 8 10 11 12 10 10 11 10 9 8 5 7 7 7 9 11 11 10 8 5 7 6 6 7 7 7 8 12 13 13
10 10 11 12 11 12 14 13 14 11 10 9 8 8 9 8 9 10 10 9 9 9 9 7 5 4 4 5 8 10 10 8 7 5 5 7 7 7 8 6 10 12 12
10 10 11 10 10 10 12 12 12 8 8 9 9 9 10 10 10 12 10 9 8 7 9 10 8 5 5 6 7 9 10 10 9 5 3 5 7 7 6 5 6 10 11
10 10 10 9 9 9 8 10 11 7 7 8 7 8 11 11 11 12 9 8 8 7 7 8 8 7 6 7 10 10 12 12 10 6 4 5 8 6 5 4 4 4 5
Wind_Direction
254 261 271 283 277 250 218 214 219 216 215 221 221 216 214 216 229 230 184 181 181 188 192 195 200 207 209 208 207 205 203 204 203 201 201 202 202 200 199 197 195 192 190
272 271 269 267 268 269 268 242 232 230 219 221 225 222 220 221 224 231 203 188 190 194 199 202 206 211 213 212 209 206 205 205 204 205 206 206 206 205 204 202 200 198 196
298 280 268 263 258 258 264 268 260 251 231 221 225 230 223 224 227 228 222 202 197 204 207 208 208 211 213 214 212 207 205 204 204 205 208 210 209 209 207 205 203 201 199
323 305 284 273 271 264 260 262 257 252 251 242 227 229 229 222 224 226 221 213 207 213 215 215 211 210 212 214 214 210 205 204 204 205 207 210 211 211 209 206 205 203 202
329 309 290 286 285 272 261 261 260 251 249 250 244 233 231 226 223 225 217 218 216 215 210 212 212 210 211 214 214 211 206 204 205 207 209 211 213 212 210 208 206 205 204
337 326 304 304 299 295 289 272 269 266 255 250 249 243 226 222 217 220 217 217 218 221 216 209 205 212 214 213 212 210 208 206 206 208 210 212 214 212 209 208 208 207 207
340 321 319 323 310 297 294 286 270 269 259 247 241 248 242 225 214 213 212 214 216 220 218 205 192 196 205 213 212 209 209 209 208 209 209 211 213 211 208 207 208 209 209
337 327 335 320 314 309 296 286 276 267 267 244 227 227 236 229 216 213 205 210 215 215 211 204 190 194 197 194 210 211 210 210 210 210 209 209 211 209 206 206 207 208 210
310 307 306 311 313 308 306 300 273 261 267 274 243 222 222 226 212 202 202 204 203 206 207 200 191 191 196 189 193 207 210 210 211 211 210 208 207 205 204 205 206 208 210
284 277 275 289 307 308 310 312 316 278 258 268 275 251 252 269 254 229 204 200 195 199 206 206 196 184 188 190 187 189 203 208 211 212 211 209 206 204 204 205 208 209 209
269 253 243 244 275 293 311 314 317 306 282 271 271 279 267 252 232 225 214 201 194 193 195 205 186 167 178 181 179 181 190 199 205 209 210 209 207 204 205 207 211 213 213
281 280 266 234 258 274 295 298 301 302 288 277 275 271 271 258 241 238 219 200 192 196 180 181 182 163 157 156 164 157 175 187 195 202 206 206 206 206 207 210 214 217 218
310 308 311 295 278 269 264 264 273 277 278 279 277 282 282 277 269 255 235 219 194 180 165 168 167 152 151 124 121 134 151 172 185 193 199 201 203 204 206 210 214 217 218
294 296 300 286 273 266 269 262 262 263 259 266 272 275 282 287 288 282 265 246 213 182 167 166 156 151 136 121 130 137 137 163 179 188 192 194 196 199 203 206 209 213 214
301 306 315 305 289 271 258 255 255 257 255 249 257 266 262 270 283 288 291 276 217 201 191 172 147 141 123 114 140 136 125 129 156 172 177 180 184 188 192 194 195 195 197
289 289 285 284 282 274 258 241 245 247 242 237 236 245 256 261 267 279 286 291 281 236 214 174 155 144 136 131 132 117 111 109 103 131 144 150 154 158 164 167 170 174 179
295 292 288 284 280 275 266 251 244 242 243 240 236 231 234 245 257 265 278 281 276 264 230 171 138 137 131 130 126 123 127 110 95 100 115 123 128 130 135 140 143 146 149
290 290 286 283 279 276 267 259 249 246 238 235 231 225 223 226 236 243 256 269 268 264 210 172 151 145 142 135 135 133 124 111 102 97 101 104 108 111 114 116 117 120 121
288 287 285 281 278 276 271 265 256 248 243 238 231 223 218 215 223 227 231 246 263 263 239 184 171 156 144 139 132 122 115 116 110 108 100 97 99 101 103 105 106 108 108
287 282 279 277 275 274 270 265 260 250 241 238 235 228 219 212 211 213 222 225 230 243 237 209 178 162 151 146 138 134 131 134 129 122 102 102 102 99 101 104 106 106 105
289 286 284 280 275 271 264 257 254 255 244 236 233 229 225 214 208 203 207 212 215 217 218 214 195 172 160 159 156 150 142 131 119 128 126 124 117 107 101 103 106 110 108
290 286 283 279 274 272 272 272 261 261 257 246 240 234 232 220 210 202 200 196 198 206 209 204 203 190 178 169 158 153 148 147 141 154 142 137 131 116 109 96 110 113 111
293 287 283 279 273 269 266 262 258 252 253 246 239 238 240 227 199 194 197 196 199 204 205 204 209 203 182 174 165 159 160 161 143 155 139 120 109 96 90 99 113 114 114
294 290 285 281 275 271 261 250 247 245 246 241 233 230 233 243 218 191 189 196 201 200 199 203 206 198 187 179 173 163 155 130 118 131 130 119 116 105 99 100 110 115 116
295 290 287 281 276 271 259 247 235 241 240 239 232 229 224 230 223 194 189 193 195 197 199 198 187 181 184 184 169 152 148 145 143 143 128 115 125 114 105 106 113 117 120
293 294 292 287 282 276 260 242 223 231 235 237 230 230 226 224 213 192 191 191 194 194 187 185 185 183 189 185 179 170 160 156 147 145 156 126 145 136 124 125 134 138 124